Time,TemperatureF,DewpointF,PressureIn,WindDirection,WindDirectionDegrees,WindSpeedMPH,WindSpeedGustMPH,Humidity,HourlyPrecipIn,Conditions,Clouds,dailyrainin,SolarRadiationWatts/m^2,SoftwareType,DateUTC
2013-05-16 00:01:00,62.0,43.0,-100.00,SW,216,10.0,13.0,49,-99.99,,,-99.99,-0.100000,,2013-05-16 06:01:00,
2013-05-16 00:12:00,62.0,43.0,-100.00,SW,224,11.0,15.0,48,-99.99,,,-99.99,-0.100000,,2013-05-16 06:12:00,
2013-05-16 00:22:00,63.0,42.0,-100.00,SW,227,12.0,17.0,46,-99.99,,,-99.99,0.000000,,2013-05-16 06:22:00,
2013-05-16 00:33:00,62.0,43.0,-100.00,SW,227,11.0,15.0,48,-99.99,,,-99.99,-0.100000,,2013-05-16 06:33:00,
2013-05-16 00:42:00,62.0,43.0,-100.00,SW,227,11.0,16.0,50,-99.99,,,-99.99,-0.100000,,2013-05-16 06:42:00,
2013-05-16 00:52:00,61.0,44.0,-100.00,SW,229,11.0,15.0,53,-99.99,,,-99.99,-0.100000,,2013-05-16 06:52:00,
2013-05-16 01:02:00,61.0,44.0,-100.00,SW,230,12.0,16.0,54,-99.99,,,-99.99,-0.100000,,2013-05-16 07:02:00,
2013-05-16 01:12:00,61.0,45.0,-100.00,SW,223,13.0,19.0,54,-99.99,,,-99.99,-0.100000,,2013-05-16 07:12:00,
2013-05-16 01:23:00,61.0,45.0,-100.00,SW,221,12.0,16.0,55,-99.99,,,-99.99,-0.100000,,2013-05-16 07:23:00,
2013-05-16 01:34:00,60.0,45.0,-100.00,SW,224,12.0,16.0,56,-99.99,,,-99.99,-0.100000,,2013-05-16 07:34:00,
2013-05-16 01:44:00,60.0,45.0,-100.00,SW,227,12.0,14.0,58,-99.99,,,-99.99,-0.100000,,2013-05-16 07:44:00,
2013-05-16 01:54:00,59.0,46.0,-100.00,SW,219,10.0,14.0,61,-99.99,,,-99.99,0.000000,,2013-05-16 07:54:00,
2013-05-16 02:03:00,58.0,45.0,-100.00,SW,223,11.0,15.0,61,-99.99,,,-99.99,-0.100000,,2013-05-16 08:03:00,
2013-05-16 02:13:00,58.0,45.0,-100.00,SW,218,11.0,15.0,60,-99.99,,,-99.99,-0.100000,,2013-05-16 08:13:00,
2013-05-16 02:23:00,57.0,46.0,-100.00,SSW,205,13.0,18.0,64,-99.99,,,-99.99,-0.100000,,2013-05-16 08:23:00,
2013-05-16 02:34:00,57.0,44.0,-100.00,SW,225,11.0,18.0,61,-99.99,,,-99.99,-0.100000,,2013-05-16 08:34:00,
2013-05-16 02:44:00,58.0,42.0,-100.00,SW,232,12.0,19.0,54,-99.99,,,-99.99,-0.100000,,2013-05-16 08:44:00,
2013-05-16 02:54:00,59.0,42.0,-100.00,SW,225,11.0,17.0,53,-99.99,,,-99.99,-0.100000,,2013-05-16 08:54:00,
2013-05-16 03:04:00,58.0,42.0,-100.00,SSW,205,11.0,14.0,54,-99.99,,,-99.99,-0.100000,,2013-05-16 09:04:00,
2013-05-16 03:14:00,57.0,43.0,-100.00,SSW,197,10.0,13.0,57,-99.99,,,-99.99,-0.100000,,2013-05-16 09:14:00,
2013-05-16 03:23:00,57.0,42.0,-100.00,SSW,208,14.0,19.0,56,-99.99,,,-99.99,-0.100000,,2013-05-16 09:23:00,
2013-05-16 03:35:00,57.0,42.0,-100.00,SSW,204,13.0,17.0,56,-99.99,,,-99.99,0.000000,,2013-05-16 09:35:00,
2013-05-16 03:45:00,57.0,41.0,-100.00,SSW,206,13.0,18.0,55,-99.99,,,-99.99,0.000000,,2013-05-16 09:45:00,
2013-05-16 03:55:00,57.0,40.0,-100.00,SW,215,15.0,19.0,53,-99.99,,,-99.99,-0.100000,,2013-05-16 09:55:00,
2013-05-16 04:04:00,57.0,40.0,-100.00,SW,223,14.0,20.0,52,-99.99,,,-99.99,-0.100000,,2013-05-16 10:04:00,
2013-05-16 04:14:00,57.0,39.0,-100.00,SW,217,12.0,16.0,51,-99.99,,,-99.99,0.000000,,2013-05-16 10:14:00,
2013-05-16 04:24:00,57.0,39.0,-100.00,SW,216,15.0,20.0,50,-99.99,,,-99.99,-0.100000,,2013-05-16 10:24:00,
2013-05-16 04:35:00,57.0,38.0,-100.00,SW,223,14.0,18.0,48,-99.99,,,-99.99,-0.100000,,2013-05-16 10:35:00,
2013-05-16 04:45:00,57.0,38.0,-100.00,SSW,211,16.0,22.0,48,-99.99,,,-99.99,-0.100000,,2013-05-16 10:45:00,
2013-05-16 04:56:00,57.0,38.0,-100.00,SW,225,13.0,19.0,48,-99.99,,,-99.99,-0.100000,,2013-05-16 10:56:00,
2013-05-16 05:05:00,57.0,38.0,-100.00,SW,222,11.0,16.0,49,-99.99,,,-99.99,0.000000,,2013-05-16 11:05:00,
2013-05-16 05:14:00,56.0,38.0,-100.00,SW,217,11.0,15.0,50,-99.99,,,-99.99,-0.100000,,2013-05-16 11:14:00,
2013-05-16 05:25:00,56.0,38.0,-100.00,SW,227,11.0,17.0,51,-99.99,,,-99.99,-0.100000,,2013-05-16 11:25:00,
2013-05-16 05:35:00,56.0,38.0,-100.00,SW,215,11.0,14.0,51,-99.99,,,-99.99,-0.100000,,2013-05-16 11:35:00,
2013-05-16 05:45:00,56.0,39.0,-100.00,SSW,213,13.0,16.0,52,-99.99,,,-99.99,0.000000,,2013-05-16 11:45:00,
2013-05-16 05:56:00,56.0,38.0,-100.00,SW,219,10.0,14.0,52,-99.99,,,-99.99,-0.100000,,2013-05-16 11:56:00,
2013-05-16 06:05:00,56.0,38.0,-100.00,SW,223,10.0,15.0,51,-99.99,,,-99.99,0.000000,,2013-05-16 12:05:00,
2013-05-16 06:13:00,56.0,38.0,-100.00,SW,225,10.0,13.0,51,-99.99,,,-99.99,0.100000,,2013-05-16 12:13:00,
2013-05-16 06:23:00,55.0,39.0,-100.00,SW,216,10.0,15.0,54,-99.99,,,-99.99,0.700000,,2013-05-16 12:23:00,
2013-05-16 06:34:00,55.0,39.0,-100.00,SW,217,11.0,15.0,54,-99.99,,,-99.99,3.600000,,2013-05-16 12:34:00,
2013-05-16 06:44:00,55.0,40.0,-100.00,SW,232,9.0,15.0,56,-99.99,,,-99.99,11.400000,,2013-05-16 12:44:00,
2013-05-16 06:53:00,55.0,39.0,-100.00,SW,234,8.0,12.0,55,-99.99,,,-99.99,29.100000,,2013-05-16 12:53:00,
2013-05-16 07:04:00,55.0,40.0,-100.00,SW,215,8.0,11.0,56,-99.99,,,-99.99,46.799999,,2013-05-16 13:04:00,
2013-05-16 07:11:00,55.0,40.0,-100.00,SSW,208,9.0,13.0,55,-99.99,,,-99.99,44.200001,,2013-05-16 13:11:00,
2013-05-16 07:26:00,55.0,40.0,-100.00,SSW,206,9.0,11.0,55,-99.99,,,-99.99,55.200001,,2013-05-16 13:26:00,
2013-05-16 07:35:00,55.0,40.0,-100.00,SSW,195,8.0,12.0,55,-99.99,,,-99.99,51.500000,,2013-05-16 13:35:00,
2013-05-16 07:43:00,55.0,41.0,-100.00,South,175,7.0,9.0,58,-99.99,,,-99.99,43.200001,,2013-05-16 13:43:00,
2013-05-16 07:54:00,55.0,41.0,-100.00,SSW,205,10.0,14.0,57,-99.99,,,-99.99,62.099998,,2013-05-16 13:54:00,
2013-05-16 08:05:00,56.0,40.0,-100.00,SSW,206,12.0,16.0,55,-99.99,,,-99.99,83.800003,,2013-05-16 14:05:00,
2013-05-16 08:15:00,56.0,41.0,-100.00,SSW,199,11.0,14.0,56,-99.99,,,-99.99,105.800003,,2013-05-16 14:15:00,
2013-05-16 08:23:00,56.0,41.0,-100.00,SSW,204,11.0,15.0,55,-99.99,,,-99.99,119.599998,,2013-05-16 14:23:00,
2013-05-16 08:37:00,56.0,40.0,-100.00,SW,221,9.0,13.0,55,-99.99,,,-99.99,137.000000,,2013-05-16 14:37:00,
2013-05-16 08:47:00,56.0,41.0,-100.00,SW,223,9.0,13.0,55,-99.99,,,-99.99,211.399994,,2013-05-16 14:47:00,
2013-05-16 08:55:00,57.0,41.0,-100.00,SSW,208,10.0,14.0,55,-99.99,,,-99.99,432.700012,,2013-05-16 14:55:00,
2013-05-16 09:08:00,58.0,41.0,-100.00,SSW,212,10.0,13.0,54,-99.99,,,-99.99,455.200012,,2013-05-16 15:08:00,
2013-05-16 09:17:00,58.0,39.0,-100.00,SSW,206,13.0,17.0,49,-99.99,,,-99.99,509.399994,,2013-05-16 15:17:00,
2013-05-16 09:28:00,58.0,39.0,-100.00,SSW,210,10.0,13.0,49,-99.99,,,-99.99,519.099976,,2013-05-16 15:28:00,
2013-05-16 09:40:00,58.0,39.0,-100.00,SSW,211,11.0,16.0,49,-99.99,,,-99.99,354.600006,,2013-05-16 15:40:00,
2013-05-16 09:50:00,59.0,40.0,-100.00,SSW,200,14.0,16.0,49,-99.99,,,-99.99,532.200012,,2013-05-16 15:50:00,
2013-05-16 10:00:00,58.0,39.0,-100.00,SW,215,13.0,15.0,48,-99.99,,,-99.99,313.100006,,2013-05-16 16:00:00,
2013-05-16 10:09:00,59.0,39.0,-100.00,SSW,197,16.0,19.0,47,-99.99,,,-99.99,565.000000,,2013-05-16 16:09:00,
2013-05-16 10:19:00,60.0,39.0,-100.00,SSW,211,14.0,18.0,46,-99.99,,,-99.99,564.500000,,2013-05-16 16:19:00,
2013-05-16 10:30:00,61.0,40.0,-100.00,SW,215,13.0,18.0,46,-99.99,,,-99.99,585.299988,,2013-05-16 16:30:00,
2013-05-16 10:40:00,60.0,-99.9,-100.00,SSW,213,15.0,19.0,47,-99.99,,,-99.99,601.099976,,2013-05-16 16:40:00,
2013-05-16 10:50:00,61.0,39.0,-100.00,SSW,212,16.0,19.0,45,-99.99,,,-99.99,712.299988,,2013-05-16 16:50:00,
2013-05-16 11:00:00,61.0,40.0,-100.00,SSW,207,16.0,19.0,45,-99.99,,,-99.99,552.000000,,2013-05-16 17:00:00,
2013-05-16 11:10:00,62.0,40.0,-100.00,SW,220,11.0,16.0,44,-99.99,,,-99.99,671.200012,,2013-05-16 17:10:00,
2013-05-16 11:20:00,62.0,39.0,-100.00,SW,218,14.0,18.0,43,-99.99,,,-99.99,817.000000,,2013-05-16 17:20:00,
2013-05-16 11:30:00,63.0,40.0,-100.00,SW,220,16.0,22.0,42,-99.99,,,-99.99,872.000000,,2013-05-16 17:30:00,
2013-05-16 11:40:00,63.0,41.0,-100.00,SW,232,11.0,17.0,43,-99.99,,,-99.99,868.000000,,2013-05-16 17:40:00,
2013-05-16 11:50:00,64.0,-99.9,-100.00,SW,222,14.0,21.0,40,-99.99,,,-99.99,905.000000,,2013-05-16 17:50:00,
2013-05-16 12:00:00,64.0,-99.9,-100.00,SW,226,13.0,18.0,40,-99.99,,,-99.99,904.000000,,2013-05-16 18:00:00,
2013-05-16 12:10:00,64.0,40.0,-100.00,SW,228,12.0,16.0,40,-99.99,,,-99.99,922.000000,,2013-05-16 18:10:00,
2013-05-16 12:20:00,65.0,39.0,-100.00,SW,226,11.0,15.0,39,-99.99,,,-99.99,952.000000,,2013-05-16 18:20:00,
2013-05-16 12:30:00,-999.0,-99.9,-100.00,SW,223,11.0,17.0,37,-99.99,,,-99.99,960.000000,,2013-05-16 18:30:00,
2013-05-16 12:40:00,-999.0,-99.9,-100.00,SW,234,12.0,17.0,36,-99.99,,,-99.99,984.000000,,2013-05-16 18:40:00,
2013-05-16 12:50:00,-999.0,-99.9,-100.00,WSW,237,12.0,17.0,36,-99.99,,,-99.99,1079.000000,,2013-05-16 18:50:00,
2013-05-16 13:00:00,-999.0,-99.9,-100.00,WSW,243,12.0,15.0,31,-99.99,,,-99.99,1020.000000,,2013-05-16 19:00:00,
2013-05-16 13:10:00,68.0,37.0,-100.00,WSW,245,11.0,16.0,31,-99.99,,,-99.99,986.000000,,2013-05-16 19:10:00,
2013-05-16 13:20:00,68.0,37.0,-100.00,WSW,241,12.0,16.0,31,-99.99,,,-99.99,1002.000000,,2013-05-16 19:20:00,
2013-05-16 13:30:00,69.0,37.0,-100.00,WSW,238,12.0,15.0,31,-99.99,,,-99.99,1043.000000,,2013-05-16 19:30:00,
2013-05-16 13:40:00,68.0,-99.9,-100.00,West,266,11.0,17.0,32,-99.99,,,-99.99,686.400024,,2013-05-16 19:40:00,
2013-05-16 13:50:00,68.0,-99.9,-100.00,SW,229,11.0,16.0,33,-99.99,,,-99.99,658.200012,,2013-05-16 19:50:00,
2013-05-16 14:00:00,68.0,-99.9,-100.00,SW,220,13.0,17.0,33,-99.99,,,-99.99,594.500000,,2013-05-16 20:00:00,
2013-05-16 14:10:00,-999.0,-99.9,-100.00,SW,222,12.0,18.0,34,-99.99,,,-99.99,719.000000,,2013-05-16 20:10:00,
2013-05-16 14:20:00,69.0,39.0,-100.00,West,259,13.0,19.0,33,-99.99,,,-99.99,942.000000,,2013-05-16 20:20:00,
2013-05-16 14:30:00,69.0,38.0,-100.00,West,263,13.0,18.0,32,-99.99,,,-99.99,866.000000,,2013-05-16 20:30:00,
2013-05-16 14:40:00,-999.0,-99.9,-100.00,SW,225,12.0,17.0,31,-99.99,,,-99.99,913.000000,,2013-05-16 20:40:00,
2013-05-16 14:50:00,70.0,39.0,-100.00,WSW,252,15.0,22.0,32,-99.99,,,-99.99,1039.000000,,2013-05-16 20:50:00,
2013-05-16 15:00:00,69.0,38.0,-100.00,SW,235,13.0,19.0,32,-99.99,,,-99.99,1015.000000,,2013-05-16 21:00:00,
2013-05-16 15:10:00,70.0,-99.9,-100.00,WSW,255,15.0,31.0,31,-99.99,,,-99.99,528.799988,,2013-05-16 21:10:00,
2013-05-16 15:20:00,68.0,38.0,-100.00,WSW,254,13.0,17.0,33,-99.99,,,-99.99,358.799988,,2013-05-16 21:20:00,
2013-05-16 15:29:00,67.0,38.0,-100.00,WSW,252,13.0,19.0,33,-99.99,,,-99.99,347.000000,,2013-05-16 21:29:00,
2013-05-16 15:38:00,67.0,38.0,-100.00,WSW,252,13.0,20.0,34,-99.99,,,-99.99,355.799988,,2013-05-16 21:38:00,
2013-05-16 15:50:00,67.0,38.0,-100.00,WSW,249,13.0,17.0,34,-99.99,,,-99.99,318.700012,,2013-05-16 21:50:00,
2013-05-16 16:00:00,-999.0,-99.9,-100.00,WSW,255,13.0,17.0,34,-99.99,,,-99.99,292.000000,,2013-05-16 22:00:00,
2013-05-16 16:07:00,66.0,38.0,-100.00,SW,235,11.0,14.0,35,-99.99,,,-99.99,287.000000,,2013-05-16 22:07:00,
2013-05-16 16:20:00,66.0,39.0,-100.00,WSW,237,11.0,15.0,36,-99.99,,,-99.99,261.799988,,2013-05-16 22:20:00,
2013-05-16 16:30:00,66.0,39.0,-100.00,WSW,239,12.0,17.0,37,-99.99,,,-99.99,257.299988,,2013-05-16 22:30:00,
2013-05-16 16:40:00,66.0,39.0,-100.00,WSW,247,13.0,18.0,38,-99.99,,,-99.99,226.699997,,2013-05-16 22:40:00,
2013-05-16 16:50:00,66.0,38.0,-100.00,West,279,19.0,24.0,36,-99.99,,,-99.99,251.300003,,2013-05-16 22:50:00,
2013-05-16 17:00:00,66.0,38.0,-100.00,West,273,22.0,28.0,35,-99.99,,,-99.99,276.000000,,2013-05-16 23:00:00,
2013-05-16 17:06:00,66.0,38.0,-100.00,West,268,19.0,24.0,35,-99.99,,,-99.99,371.299988,,2013-05-16 23:06:00,
2013-05-16 17:16:00,66.0,38.0,-100.00,West,267,23.0,29.0,36,-99.99,,,-99.99,365.500000,,2013-05-16 23:16:00,
2013-05-16 17:24:00,66.0,39.0,-100.00,West,270,26.0,32.0,36,-99.99,,,-99.99,246.100006,,2013-05-16 23:24:00,
2013-05-16 17:34:00,65.0,38.0,-100.00,West,279,26.0,32.0,37,-99.99,,,-99.99,302.000000,,2013-05-16 23:34:00,
2013-05-16 17:45:00,65.0,38.0,-100.00,West,277,29.0,35.0,37,-99.99,,,-99.99,351.899994,,2013-05-16 23:45:00,
2013-05-16 17:53:00,63.0,39.0,-100.00,West,267,30.0,37.0,41,-99.99,,,-99.99,271.799988,,2013-05-16 23:53:00,
2013-05-16 18:02:00,62.0,40.0,-100.00,West,266,27.0,36.0,43,-99.99,,,-99.99,193.100006,,2013-05-17 00:02:00,
2013-05-16 18:13:00,62.0,40.0,-100.00,West,265,29.0,35.0,44,-99.99,,,-99.99,199.600006,,2013-05-17 00:13:00,
2013-05-16 18:22:00,61.0,41.0,-100.00,West,263,26.0,32.0,48,-99.99,,,-99.99,207.199997,,2013-05-17 00:22:00,
2013-05-16 18:33:00,61.0,42.0,-100.00,West,271,21.0,27.0,49,-99.99,,,-99.99,187.600006,,2013-05-17 00:33:00,
2013-05-16 18:43:00,60.0,41.0,-100.00,West,277,27.0,34.0,49,-99.99,,,-99.99,170.399994,,2013-05-17 00:43:00,
2013-05-16 18:52:00,60.0,41.0,-100.00,West,280,27.0,32.0,49,-99.99,,,-99.99,171.800003,,2013-05-17 00:52:00,
2013-05-16 19:03:00,60.0,41.0,-100.00,West,277,23.0,28.0,49,-99.99,,,-99.99,121.199997,,2013-05-17 01:03:00,
2013-05-16 19:11:00,59.0,41.0,-100.00,West,281,24.0,29.0,51,-99.99,,,-99.99,141.000000,,2013-05-17 01:11:00,
2013-05-16 19:23:00,59.0,42.0,-100.00,West,276,22.0,29.0,52,-99.99,,,-99.99,112.300003,,2013-05-17 01:23:00,
2013-05-16 19:31:00,59.0,42.0,-100.00,West,281,21.0,26.0,52,-99.99,,,-99.99,78.800003,,2013-05-17 01:31:00,
2013-05-16 19:43:00,59.0,42.0,-100.00,West,276,18.0,25.0,52,-99.99,,,-99.99,40.099998,,2013-05-17 01:43:00,
2013-05-16 19:52:00,59.0,41.0,-100.00,West,278,16.0,22.0,51,-99.99,,,-99.99,27.000000,,2013-05-17 01:52:00,
2013-05-16 20:02:00,59.0,41.0,-100.00,West,281,18.0,25.0,51,-99.99,,,-99.99,27.299999,,2013-05-17 02:02:00,
2013-05-16 20:11:00,58.0,41.0,-100.00,West,280,17.0,22.0,52,-99.99,,,-99.99,23.700001,,2013-05-17 02:11:00,
2013-05-16 20:21:00,58.0,41.0,-100.00,West,273,15.0,18.0,54,-99.99,,,-99.99,9.400000,,2013-05-17 02:21:00,
2013-05-16 20:32:00,57.0,43.0,-100.00,West,278,14.0,15.0,59,-99.99,,,-99.99,9.400000,,2013-05-17 02:32:00,
2013-05-16 20:41:00,56.0,44.0,-100.00,West,274,10.0,12.0,64,-99.99,,,-99.99,6.800000,,2013-05-17 02:41:00,
2013-05-16 20:52:00,55.0,45.0,-100.00,West,263,7.0,9.0,67,-99.99,,,-99.99,3.800000,,2013-05-17 02:52:00,
2013-05-16 21:01:00,55.0,45.0,-100.00,West,277,4.0,6.0,69,-99.99,,,-99.99,1.500000,,2013-05-17 03:01:00,
2013-05-16 21:11:00,55.0,45.0,-100.00,West,263,4.0,4.0,68,-99.99,,,-99.99,0.600000,,2013-05-17 03:11:00,
2013-05-16 21:22:00,55.0,45.0,-100.00,West,262,3.0,4.0,68,-99.99,,,-99.99,0.200000,,2013-05-17 03:22:00,
2013-05-16 21:33:00,55.0,45.0,-100.00,SW,222,4.0,5.0,67,-99.99,,,-99.99,0.000000,,2013-05-17 03:33:00,
2013-05-16 21:43:00,55.0,45.0,-100.00,SSW,196,4.0,5.0,68,-99.99,,,-99.99,-0.100000,,2013-05-17 03:43:00,
2013-05-16 21:52:00,54.0,46.0,-100.00,South,186,6.0,7.0,71,-99.99,,,-99.99,-0.100000,,2013-05-17 03:52:00,
2013-05-16 22:02:00,54.0,46.0,-100.00,South,182,7.0,8.0,74,-99.99,,,-99.99,0.000000,,2013-05-17 04:02:00,
2013-05-16 22:12:00,54.0,47.0,-100.00,South,182,7.0,8.0,76,-99.99,,,-99.99,0.000000,,2013-05-17 04:12:00,
2013-05-16 22:23:00,54.0,46.0,-100.00,SSW,193,7.0,9.0,73,-99.99,,,-99.99,-0.100000,,2013-05-17 04:23:00,
2013-05-16 22:33:00,55.0,45.0,-100.00,SSW,207,6.0,9.0,68,-99.99,,,-99.99,-0.100000,,2013-05-17 04:33:00,
2013-05-16 22:43:00,54.0,44.0,-100.00,SSW,196,8.0,9.0,68,-99.99,,,-99.99,-0.100000,,2013-05-17 04:43:00,
2013-05-16 22:53:00,54.0,44.0,-100.00,SSW,200,7.0,8.0,70,-99.99,,,-99.99,-0.100000,,2013-05-17 04:53:00,
2013-05-16 23:02:00,54.0,45.0,-100.00,SSW,205,8.0,9.0,70,-99.99,,,-99.99,-0.100000,,2013-05-17 05:02:00,
2013-05-16 23:13:00,55.0,45.0,-100.00,SSW,207,8.0,10.0,69,-99.99,,,-99.99,-0.100000,,2013-05-17 05:13:00,
2013-05-16 23:21:00,54.0,46.0,-100.00,SSW,195,8.0,11.0,73,-99.99,,,-99.99,-0.100000,,2013-05-17 05:21:00,
2013-05-16 23:32:00,53.0,46.0,-100.00,SSW,195,7.0,9.0,75,-99.99,,,-99.99,-0.100000,,2013-05-17 05:32:00,
2013-05-16 23:42:00,53.0,46.0,-100.00,South,182,7.0,9.0,78,-99.99,,,-99.99,-0.100000,,2013-05-17 05:42:00,
2013-05-16 23:51:00,52.0,46.0,-100.00,South,176,7.0,9.0,79,-99.99,,,-99.99,-0.100000,,2013-05-17 05:51:00,